This is the latest recevied weather packets stored in our database for station/object VE3TEJ. If no packets are shown the sender has not sent any weather packets the latest 10 day(s).
| Time | Temp. | Humidity | Pressure | Rain* | Wind** | Luminosity | Snow |
|---|---|---|---|---|---|---|---|
| 1778178159 | 10.56° C | 48% | 1009.5 hPa | 0 mm | - | - | - |
| 1778177858 | 10.56° C | 49% | 1009.7 hPa | 0 mm | - | - | - |
| 1778177558 | 10.56° C | 49% | 1009.7 hPa | 0 mm | - | - | - |
| 1778177258 | 10.56° C | 50% | 1009.7 hPa | 0 mm | - | - | - |
| 1778176957 | 11.11° C | 48% | 1009.5 hPa | 0 mm | - | - | - |
| 1778176659 | 11.11° C | 47% | 1009.5 hPa | 0 mm | - | - | - |
| 1778176357 | 11.11° C | 47% | 1009.5 hPa | 0 mm | - | - | - |
| 1778176057 | 11.11° C | 47% | 1009.7 hPa | 0 mm | - | - | - |
| 1778175730 | 11.11° C | 48% | 1009.7 hPa | 0 mm | - | - | - |
| 1778175458 | 11.11° C | 47% | 1009.7 hPa | 0 mm | - | - | - |
| 1778175158 | 11.67° C | 47% | 1009.7 hPa | 0 mm | - | - | - |
| 1778174829 | 11.67° C | 49% | 1009.9 hPa | 0 mm | - | - | - |
| 1778174557 | 11.11° C | 51% | 1009.9 hPa | 0 mm | - | - | - |
| 1778174259 | 11.11° C | 45% | 1009.8 hPa | 0 mm | - | - | - |
| 1778173930 | 11.11° C | 46% | 1009.9 hPa | 0 mm | - | - | - |
| 1778173658 | 10.56° C | 46% | 1010 hPa | 0 mm | - | - | - |
| 1778173358 | 10.56° C | 48% | 1010 hPa | 0 mm | - | - | - |
| 1778173059 | 11.11° C | 47% | 1010 hPa | 0 mm | - | - | - |
| 1778172759 | 11.67° C | 48% | 1009.9 hPa | 0 mm | - | - | - |
| 1778172458 | 11.11° C | 49% | 1010 hPa | 0 mm | - | - | - |
| 1778172158 | 10.56° C | 48% | 1010.2 hPa | 0 mm | - | - | - |
| 1778171857 | 10.56° C | 49% | 1010.2 hPa | 0 mm | - | - | - |
| 1778171557 | 10.56° C | 48% | 1010.3 hPa | 0 mm | - | - | - |
| 1778171230 | 10.56° C | 50% | 1010.2 hPa | 0 mm | - | - | - |
| 1778170958 | 10.56° C | 49% | 1010.3 hPa | 0 mm | - | - | - |
* Rain latest hour (hover to see other rain measurements)
** Current wind speed in m/s (hover to see current wind gust speed)